[[{"header":{"parameterUnit":"m.s-1","parameterCategory":2,"la1":30.2991,"la2":30.254,"lo1":-89.0895,"lo2":-89.0444,"dy":0.0017,"dx":0.0017,"nx":28,"ny":28,"refTime":"2025-04-06T21:00:00:Z","depth":"0","parameterNumber":2,"parameterNumberName":"U-component_of_CURRENTS"},"data":[0,0,0,0,0,0,0,0,0,0,0,0,0,0,0,0,0,0,0,0,0,0,0,0,0,0,0,0,0,0,0,0,0,0,0,0,0,0,0,0,0,0,0,0,0,0,0,0,0,0,0,0,0,0,0,0,0,0,0.2039,0.204,0,0.2093,0.2093,0.2093,0.2104,0.2104,0.2104,0.2103,0.2108,0.2108,0.2109,0,0,0,0,0,0,0,0,0,0,0,0,0,0.194,0.1942,0.2039,0.204,0.2041,0.2093,0.2093,0.2094,0.2104,0.2104,0.2103,0.2103,0.2108,0.2108,0.2109,0,0,0,0,0,0,0,0,0,0,0,0,0,0.1985,0.1942,0.2039,0.2054,0.2057,0.2092,0.2093,0.2094,0.2104,0.2104,0.2103,0.2103,0.2108,0.2108,0.2109,0.2116,0,0,0.211,0.211,0,0,0,0,0,0,0,0,0.1982,0.1988,0.2051,0.2053,0.2056,0.2094,0.206,0.21,0.2104,0.2083,0.2103,0.2103,0.2101,0.2102,0.2109,0.2117,0.2117,0.211,0.211,0.211,0.2111,0,0,0,0,0,0,0,0.1979,0.1986,0.2058,0.2052,0.2055,0.2057,0.2063,0.2068,0.209,0.2085,0.2086,0.2097,0.2101,0.2109,0.2109,0.2117,0.211,0.211,0.2111,0.2111,0.2126,0.2126,0,0,0,0,0,0,0.1979,0.1983,0.2056,0.206,0.2021,0.2059,0.2065,0.208,0.2091,0.2093,0.2097,0.2097,0.2108,0.2109,0.2109,0.2127,0.211,0.2111,0.2111,0.2126,0.2126,0.2126,0,0,0,0,0,0,0.1977,0.1985,0.2054,0.2024,0.2033,0.2061,0.2077,0.2081,0.209,0.2101,0.2102,0.2103,0.2108,0.2109,0.212,0.2127,0.2111,0.2111,0.2126,0.2126,0.2126,0.2157,0,0,0,0,0,0,0.1974,0.1984,0.1992,0.2024,0.2035,0.2086,0.2078,0.2082,0.2098,0.2099,0.2106,0.2106,0.2108,0.212,0.2121,0.2127,0.2112,0.2126,0.2126,0.2126,0.2156,0.2159,0.2161,0,0,0,0,0,0.197,0.1986,0.1992,0.2001,0.2046,0.2088,0.2093,0.2109,0.2098,0.2113,0.2113,0.2106,0.2122,0.2121,0.2122,0.2128,0.2126,0.2126,0.2126,0.2155,0.2158,0.2161,0,0,0,0,0,0,0.1946,0.199,0.1997,0.2024,0.2058,0.209,0.2106,0.211,0.2121,0.2117,0.2115,0.2116,0.2127,0.2122,0.2121,0.2132,0.212,0.212,0.2141,0.2144,0.2146,0.2168,0.2112,0,0,0,0,0,0.1945,0.197,0.201,0.2033,0.205,0.2075,0.2091,0.2104,0.2121,0.2126,0.2128,0.2126,0.213,0.2132,0.2137,0.2146,0.2165,0.2148,0.2151,0.2153,0.217,0.2205,0.2212,0.2128,0.2128,0.2128,0,0,0.1944,0.197,0.1985,0.203,0.2054,0.2076,0.2084,0.2116,0.2128,0.2123,0.2135,0.2138,0.2134,0.2147,0.2151,0.2144,0.2185,0.2153,0.2155,0.2172,0.2206,0.2215,0.2222,0.2128,0.2128,0.2128,0,0,0.195,0.1978,0.1996,0.2022,0.2064,0.2084,0.2092,0.2127,0.2138,0.2151,0.215,0.2166,0.2158,0.2175,0.2174,0.2192,0.2198,0.2179,0.2209,0.2242,0.225,0.2258,0.2292,0.2302,0.2178,0.2178,0.2179,0,0.1944,0.1975,0.2008,0.2028,0.2053,0.2084,0.2107,0.2123,0.2153,0.2174,0.2154,0.2178,0.2174,0.2207,0.221,0.22,0.2218,0.22,0.2248,0.2255,0.2262,0.2295,0.2306,0.218,0.218,0.218,0.218,0,0.1959,0.1983,0.1999,0.2034,0.2063,0.2096,0.2127,0.2153,0.216,0.2178,0.2213,0.2218,0.2239,0.223,0.2222,0.227,0.2267,0.225,0.2246,0.2273,0.2305,0.2316,0.2182,0.2182,0.2181,0.2181,0,0,0.1947,0.2001,0.2004,0.2026,0.2073,0.2102,0.2133,0.2184,0.2214,0.2229,0.2269,0.2276,0.2294,0.2296,0.2298,0.2322,0.2379,0.2306,0.2307,0.235,0.2458,0.2474,0.2487,0.237,0.2372,0.2373,0.2462,0,0.1951,0.1987,0.2015,0.2053,0.208,0.2125,0.2154,0.22,0.2233,0.2278,0.2302,0.2332,0.2312,0.2329,0.2354,0.2378,0.2409,0.2357,0.2418,0.242,0.2439,0.2501,0.2463,0.2541,0.2472,0.2474,0.2475,0,0.1952,0.198,0.2016,0.2079,0.2096,0.2116,0.2194,0.2226,0.2296,0.2326,0.2374,0.2394,0.245,0.2413,0.2487,0.2455,0.2465,0.2474,0.2477,0.2493,0.2457,0.2501,0.2563,0.2519,0.2492,0.249,0.2489,0,0.1928,0.1983,0.2015,0.2034,0.21,0.2128,0.2167,0.2237,0.2288,0.2364,0.2411,0.2469,0.251,0.2535,0.2564,0.2529,0.2639,0.2589,0.2617,0.2617,0.26,0.2597,0.2638,0.2643,0.2643,0.2642,0.2642,0,0.1924,0.1948,0.2005,0.2019,0.2066,0.2115,0.2174,0.2226,0.2314,0.2382,0.2434,0.2507,0.2543,0.2608,0.2607,0.2667,0.2679,0.2652,0.2653,0.2609,0.2605,0.2577,0.2547,0.2646,0.2645,0.2644,0.2644,0,0.1888,0.1926,0.1964,0.203,0.2052,0.2081,0.2174,0.2222,0.231,0.2404,0.2435,0.2559,0.2651,0.2691,0.2751,0.2738,0.2722,0.2786,0.2737,0.2731,0.2697,0.267,0.2626,0.2534,0.2831,0.2833,0.2834,0,0.1871,0.1885,0.1955,0.1976,0.2002,0.2057,0.2097,0.22,0.2265,0.2437,0.2487,0.2622,0.2718,0.2836,0.2854,0.2891,0.2777,0.2851,0.2774,0.2724,0.2694,0.2566,0.248,0.2761,0.2761,0.2761,0.2761,0,0.1835,0.186,0.189,0.1936,0.1975,0.2031,0.2103,0.2158,0.2289,0.2388,0.2535,0.2632,0.2791,0.2843,0.2911,0.2916,0.2747,0.2856,0.2816,0.267,0.2522,0.2424,0.2671,0.2763,0.2763,0.2763,0.2763,0.2763,0.1799,0.1811,0.1851,0.1893,0.1938,0.1989,0.2012,0.2111,0.2214,0.2345,0.2496,0.2618,0.2779,0.2894,0.2881,0.2863,0.2781,0.2784,0.2766,0.2647,0.2527,0.279,0.2871,0.2872,0.2872,0.2872,0.2873,0,0.1746,0.1769,0.1806,0.1847,0.187,0.1923,0.2003,0.2023,0.2104,0.2269,0.239,0.2589,0.2696,0.2787,0.2872,0.2794,0.2624,0.2712,0.252,0.2443,0.2711,0.2678,0.2706,0.2706,0.2706,0.2706,0.2706,0.2706,0.1718,0.1725,0.1749,0.1764,0.1795,0.18,0.1828,0.1879,0.1981,0.2116,0.2237,0.238,0.2665,0.2865,0.2854,0.277,0.2524,0.2448,0.2369,0.2586,0.2589,0.2593,0.2555,0.2557,0.2557,0.2008,0.2004,0.2001]},{"header":{"parameterUnit":"m.s-1","parameterCategory":2,"la1":30.2991,"la2":30.254,"lo1":-89.0895,"lo2":-89.0444,"dy":0.0017,"dx":0.0017,"nx":28,"ny":28,"refTime":"2025-04-06T21:00:00:Z","depth":"0","parameterNumber":3,"parameterNumberName":"V-component_of_CURRENTS"},"data":[0,0,0,0,0,0,0,0,0,0,0,0,0,0,0,0,0,0,0,0,0,0,0,0,0,0,0,0,0,0,0,0,0,0,0,0,0,0,0,0,0,0,0,0,0,0,0,0,0,0,0,0,0,0,0,0,0,0,-0.0471,-0.0472,0,-0.0524,-0.0525,-0.0525,-0.0579,-0.058,-0.0581,-0.0582,-0.0577,-0.0576,-0.0575,0,0,0,0,0,0,0,0,0,0,0,0,0,-0.0433,-0.0434,-0.0471,-0.0472,-0.0473,-0.0524,-0.0525,-0.0525,-0.0579,-0.058,-0.0581,-0.0582,-0.0577,-0.0576,-0.0575,0,0,0,0,0,0,0,0,0,0,0,0,0,-0.0464,-0.0434,-0.0471,-0.0506,-0.051,-0.0524,-0.0525,-0.0526,-0.0579,-0.058,-0.0582,-0.0583,-0.0577,-0.0576,-0.0575,-0.0542,0,0,-0.0571,-0.057,0,0,0,0,0,0,0,0,-0.0462,-0.0465,-0.0501,-0.0504,-0.0508,-0.0547,-0.051,-0.0529,-0.0579,-0.0552,-0.0582,-0.0583,-0.0561,-0.0561,-0.0568,-0.0542,-0.0542,-0.057,-0.057,-0.0569,-0.0569,0,0,0,0,0,0,0,-0.046,-0.0463,-0.0492,-0.0501,-0.0506,-0.0525,-0.0531,-0.0514,-0.0547,-0.0555,-0.0559,-0.0565,-0.0563,-0.0569,-0.0568,-0.0542,-0.057,-0.0569,-0.0568,-0.0568,-0.0478,-0.0476,0,0,0,0,0,0,-0.0452,-0.0461,-0.049,-0.0493,-0.0488,-0.0525,-0.0531,-0.0533,-0.0549,-0.0553,-0.0564,-0.0568,-0.0571,-0.057,-0.0568,-0.0517,-0.0569,-0.0568,-0.0567,-0.0479,-0.0477,-0.0475,0,0,0,0,0,0,-0.0451,-0.0454,-0.0488,-0.0479,-0.0485,-0.0524,-0.0526,-0.0533,-0.054,-0.0557,-0.0561,-0.0564,-0.0572,-0.057,-0.0544,-0.0518,-0.0567,-0.0566,-0.0481,-0.0478,-0.0476,-0.0424,0,0,0,0,0,0,-0.045,-0.0453,-0.0445,-0.0478,-0.0485,-0.0477,-0.0525,-0.0533,-0.0543,-0.0548,-0.0557,-0.0559,-0.0573,-0.0546,-0.0542,-0.0517,-0.0565,-0.0483,-0.048,-0.0477,-0.0427,-0.042,-0.0413,0,0,0,0,0,-0.0448,-0.0428,-0.0444,-0.0448,-0.0475,-0.0475,-0.0479,-0.0512,-0.0541,-0.0526,-0.054,-0.0559,-0.0525,-0.0543,-0.054,-0.0513,-0.0484,-0.0481,-0.0477,-0.0431,-0.0421,-0.0413,0,0,0,0,0,0,-0.0404,-0.0433,-0.0451,-0.044,-0.045,-0.0485,-0.0474,-0.0503,-0.0505,-0.0507,-0.0535,-0.0535,-0.0506,-0.0509,-0.0529,-0.0477,-0.0508,-0.0503,-0.0473,-0.0465,-0.0458,-0.0456,-0.0564,0,0,0,0,0,-0.0391,-0.0385,-0.0413,-0.0401,-0.0402,-0.0438,-0.0442,-0.0462,-0.0474,-0.0478,-0.0488,-0.0491,-0.0486,-0.0477,-0.047,-0.0433,-0.0461,-0.0414,-0.0407,-0.0401,-0.0396,-0.0423,-0.0418,-0.0464,-0.0464,-0.0464,0,0,-0.0373,-0.0385,-0.0384,-0.0392,-0.0403,-0.0385,-0.0442,-0.0436,-0.0425,-0.0472,-0.0448,-0.0464,-0.0472,-0.044,-0.0427,-0.0441,-0.04,-0.0396,-0.0391,-0.039,-0.0419,-0.0415,-0.0411,-0.0461,-0.0462,-0.0462,0,0,-0.0318,-0.034,-0.031,-0.0312,-0.0319,-0.0339,-0.0334,-0.0356,-0.0367,-0.0349,-0.0385,-0.0386,-0.0369,-0.0377,-0.038,-0.0323,-0.0364,-0.0316,-0.0275,-0.0301,-0.0298,-0.0296,-0.0322,-0.0322,-0.031,-0.0309,-0.0309,0,-0.0291,-0.0267,-0.0298,-0.0266,-0.0264,-0.0313,-0.0278,-0.0289,-0.0301,-0.0305,-0.0327,-0.0332,-0.0341,-0.0323,-0.0309,-0.0308,-0.0332,-0.0311,-0.0294,-0.0292,-0.0291,-0.0318,-0.032,-0.0306,-0.0307,-0.0307,-0.0307,0,-0.0213,-0.0196,-0.0175,-0.0157,-0.0153,-0.0132,-0.0155,-0.0152,-0.0181,-0.0204,-0.02,-0.0226,-0.0235,-0.0235,-0.0256,-0.0244,-0.0267,-0.0288,-0.0321,-0.0284,-0.0314,-0.0317,-0.0302,-0.0303,-0.0304,-0.0305,0,0,-0.015,-0.0126,-0.0119,-0.01,-0.0099,-0.0089,-0.0066,-0.0067,-0.0063,-0.0085,-0.0084,-0.0095,-0.0136,-0.0141,-0.0172,-0.0194,-0.021,-0.0232,-0.0235,-0.0268,-0.0268,-0.0283,-0.0288,-0.0234,-0.0234,-0.0234,-0.0293,0,-0.0079,-0.0007,-0.0017,0.0043,0.0073,0.0036,0.0057,0.0047,0.0021,0.0014,-0.0037,-0.0041,-0.0091,-0.01,-0.013,-0.019,-0.0214,-0.0192,-0.0291,-0.0294,-0.0321,-0.0291,-0.0282,-0.0334,-0.0296,-0.0296,-0.0296,0,0.0004,0.0035,0.0105,0.0127,0.0138,0.016,0.0163,0.0175,0.0146,0.0124,0.0092,0.0047,0.0013,-0.0039,-0.0128,-0.0114,-0.0182,-0.0235,-0.0239,-0.0274,-0.0313,-0.0364,-0.0341,-0.0485,-0.0301,-0.03,-0.03,0,0.0061,0.0118,0.0169,0.018,0.0202,0.0217,0.022,0.0206,0.0222,0.0185,0.0187,0.0123,0.0098,0.0004,-0.0108,-0.0119,-0.0215,-0.0246,-0.0323,-0.0326,-0.0347,-0.0351,-0.0483,-0.0307,-0.0307,-0.0307,-0.0307,0,0.0134,0.0174,0.0196,0.0223,0.0278,0.0268,0.031,0.0299,0.0296,0.0325,0.0243,0.0252,0.0106,0.0033,-0.0081,-0.0206,-0.0196,-0.0311,-0.0338,-0.0327,-0.0328,-0.0478,-0.057,-0.0309,-0.0309,-0.0308,-0.0308,0,0.0191,0.0206,0.0264,0.0294,0.0307,0.0342,0.0376,0.0405,0.0387,0.0421,0.0417,0.0349,0.0251,0.0104,-0.0048,-0.016,-0.0373,-0.0332,-0.0309,-0.0333,-0.054,-0.0628,-0.0807,-0.0865,-0.0427,-0.0428,-0.0428,0,0.0228,0.0265,0.0318,0.0353,0.0367,0.0412,0.0448,0.045,0.0491,0.049,0.0522,0.0437,0.0403,0.0168,-0.0052,-0.0255,-0.0398,-0.0387,-0.0406,-0.0546,-0.0666,-0.0738,-0.0779,-0.0417,-0.0417,-0.0417,-0.0418,0,0.0294,0.0307,0.0353,0.0426,0.0472,0.0533,0.0585,0.0636,0.0646,0.0676,0.0706,0.0677,0.0447,0.0249,-0.0045,-0.0201,-0.05,-0.04,-0.0553,-0.0673,-0.0753,-0.0823,-0.0388,-0.0421,-0.042,-0.042,-0.042,-0.042,0.0338,0.0381,0.0437,0.051,0.0569,0.0651,0.0715,0.0776,0.0855,0.0919,0.0868,0.0857,0.0538,0.0142,-0.0095,-0.0525,-0.0537,-0.0644,-0.0741,-0.0801,-0.0859,-0.0429,-0.0487,-0.0487,-0.0487,-0.0488,-0.0488,0,0.0398,0.0444,0.0517,0.0604,0.0685,0.07,0.0811,0.0883,0.099,0.1043,0.107,0.0904,0.0519,0.0106,-0.0471,-0.0788,-0.0911,-0.0976,-0.1082,-0.1106,-0.0726,-0.0725,-0.0828,-0.0828,-0.0827,-0.0827,-0.0827,-0.0827,0.0429,0.0512,0.0552,0.0694,0.0756,0.0874,0.0947,0.1047,0.112,0.1188,0.118,0.1133,0.0801,-0.0236,-0.0958,-0.1141,-0.1368,-0.1438,-0.1545,-0.1295,-0.1272,-0.1249,-0.1269,-0.1483,-0.1484,-0.1866,-0.187,-0.1874]}],[{"header":{"parameterUnit":"m.s-1","parameterCategory":2,"la1":30.2991,"la2":30.254,"lo1":-89.0895,"lo2":-89.0444,"dy":0.0017,"dx":0.0017,"nx":28,"ny":28,"refTime":"2025-04-06T21:00:00:Z","depth":"2","parameterNumber":2,"parameterNumberName":"U-component_of_CURRENTS"},"data":[0,0,0,0,0,0,0,0,0,0,0,0,0,0,0,0,0,0,0,0,0,0,0,0,0,0,0,0,0,0,0,0,0,0,0,0,0,0,0,0,0,0,0,0,0,0,0,0,0,0,0,0,0,0,0,0,0,0,0.1934,0.1935,0,0.1986,0.1987,0.1987,0.1997,0.1997,0.1997,0.1996,0.2002,0.2002,0.2003,0,0,0,0,0,0,0,0,0,0,0,0,0,0.1835,0.1836,0.1934,0.1935,0.1936,0.1986,0.1987,0.1987,0.1997,0.1997,0.1997,0.1996,0.2002,0.2002,0.2003,0,0,0,0,0,0,0,0,0,0,0,0,0,0.1878,0.1837,0.1934,0.1949,0.1951,0.1986,0.1987,0.1987,0.1997,0.1997,0.1997,0.1996,0.2002,0.2002,0.2003,0.2009,0,0,0.2004,0.2004,0,0,0,0,0,0,0,0,0.1876,0.1882,0.1946,0.1948,0.1951,0.1988,0.1954,0.1993,0.1997,0.1976,0.1996,0.1996,0.1995,0.1996,0.2003,0.201,0.201,0.2004,0.2004,0.2004,0.2005,0,0,0,0,0,0,0,0.1873,0.188,0.1952,0.1947,0.195,0.1951,0.1956,0.1961,0.1983,0.1978,0.198,0.199,0.1995,0.2002,0.2003,0.201,0.2004,0.2004,0.2005,0.2005,0.2019,0.2019,0,0,0,0,0,0,0.1874,0.1877,0.195,0.1954,0.1915,0.1953,0.1959,0.1973,0.1984,0.1987,0.1991,0.1991,0.2002,0.2002,0.2003,0.2023,0.2004,0.2005,0.2005,0.2019,0.2019,0.2019,0,0,0,0,0,0,0.1871,0.188,0.1948,0.1918,0.1927,0.1955,0.1971,0.1975,0.1987,0.1995,0.1996,0.2,0.2001,0.2002,0.2012,0.2023,0.2005,0.2005,0.2019,0.2019,0.2019,0.2055,0,0,0,0,0,0,0.1868,0.1879,0.1889,0.1919,0.1929,0.1974,0.1972,0.1976,0.1995,0.1996,0.2003,0.2003,0.2001,0.2011,0.2012,0.2023,0.2006,0.2019,0.2019,0.2019,0.2054,0.2057,0.2059,0,0,0,0,0,0.1864,0.1881,0.1889,0.1898,0.1942,0.1975,0.1981,0.1997,0.1996,0.2005,0.2008,0.2003,0.2013,0.2012,0.2013,0.2024,0.2019,0.2019,0.2019,0.2053,0.2056,0.2059,0,0,0,0,0,0,0.1844,0.1885,0.1894,0.1922,0.1949,0.1978,0.1992,0.2001,0.2011,0.201,0.201,0.201,0.2022,0.2015,0.2014,0.2027,0.2013,0.2014,0.2038,0.2041,0.2044,0.2064,0.2006,0,0,0,0,0,0.1845,0.1868,0.1904,0.1927,0.1942,0.1966,0.1981,0.1994,0.2009,0.2014,0.2019,0.2019,0.2024,0.2027,0.2029,0.2039,0.2055,0.2044,0.2046,0.2049,0.2064,0.2098,0.2106,0.202,0.202,0.202,0,0,0.1844,0.187,0.1884,0.1924,0.1946,0.1965,0.1974,0.2003,0.2016,0.2012,0.2028,0.2031,0.2028,0.204,0.2044,0.2037,0.208,0.2049,0.2051,0.2066,0.2099,0.2108,0.2115,0.202,0.202,0.202,0,0,0.1848,0.1878,0.1893,0.1916,0.1952,0.1971,0.198,0.2011,0.2024,0.2038,0.2041,0.2057,0.2052,0.2068,0.2069,0.2087,0.2093,0.2076,0.2108,0.214,0.2148,0.2155,0.2187,0.2197,0.2077,0.2077,0.2077,0,0.1843,0.1873,0.1902,0.1919,0.1944,0.1972,0.1993,0.2009,0.2038,0.2059,0.2042,0.2072,0.2068,0.2103,0.2106,0.2096,0.2113,0.2098,0.2146,0.2153,0.216,0.2191,0.2201,0.2079,0.2079,0.2078,0.2078,0,0.1852,0.1879,0.1893,0.1925,0.1951,0.198,0.201,0.2036,0.2049,0.2068,0.2105,0.2109,0.2132,0.2127,0.212,0.2169,0.2165,0.2148,0.2144,0.2171,0.2201,0.2211,0.2081,0.2081,0.208,0.208,0,0,0.1837,0.1891,0.1895,0.1918,0.1963,0.1988,0.202,0.2069,0.2102,0.2117,0.2162,0.2172,0.2189,0.2193,0.2196,0.2221,0.2278,0.2206,0.2207,0.2247,0.2354,0.2358,0.2369,0.227,0.2272,0.2273,0.2357,0,0.1839,0.1874,0.1902,0.1941,0.1968,0.2013,0.2043,0.2087,0.2121,0.2167,0.2193,0.2226,0.2209,0.2228,0.2253,0.2276,0.2306,0.2258,0.2313,0.2315,0.2323,0.2382,0.22,0.226,0.2367,0.2368,0.2369,0,0.1837,0.1867,0.1904,0.1969,0.1986,0.2007,0.2085,0.2117,0.2186,0.2216,0.2265,0.2286,0.2343,0.2309,0.2381,0.235,0.2361,0.2369,0.2372,0.2374,0.2338,0.2248,0.2274,0.2386,0.2385,0.2384,0.2383,0,0.1817,0.1873,0.1907,0.1927,0.1993,0.2022,0.206,0.213,0.2179,0.2255,0.2301,0.2359,0.2401,0.2426,0.2454,0.2422,0.2526,0.248,0.2496,0.2495,0.2353,0.2338,0.2531,0.2531,0.2531,0.2531,0.2531,0,0.1815,0.1842,0.1899,0.1915,0.1963,0.2011,0.2071,0.2122,0.2207,0.2272,0.2325,0.2393,0.2433,0.2494,0.2494,0.2547,0.2564,0.2528,0.2528,0.2359,0.2345,0.2457,0.2447,0.2534,0.2533,0.2533,0.2532,0,0.1785,0.1824,0.1864,0.193,0.1951,0.1982,0.2072,0.2117,0.2204,0.2294,0.2325,0.2442,0.2528,0.2568,0.2626,0.2611,0.2644,0.2651,0.2458,0.2435,0.2578,0.2569,0.268,0.2681,0.2682,0.2683,0.2683,0,0.1773,0.1789,0.1857,0.1878,0.1905,0.196,0.1998,0.2098,0.2159,0.2323,0.2368,0.2495,0.2575,0.2683,0.2684,0.2713,0.2705,0.2544,0.2452,0.261,0.2599,0.2588,0.2578,0.2268,0.2266,0.2263,0.2262,0,0.1741,0.1765,0.1796,0.1841,0.1879,0.193,0.2,0.2051,0.2176,0.2266,0.2396,0.2479,0.261,0.2576,0.2631,0.2611,0.2525,0.2502,0.2723,0.227,0.2232,0.2218,0.2219,0.2241,0.2243,0.2245,0.2246,0.2246,0.1709,0.172,0.1758,0.1798,0.1841,0.1885,0.1903,0.1994,0.2084,0.2189,0.2328,0.238,0.2435,0.2443,0.239,0.2345,0.2506,0.2366,0.2368,0.2374,0.2323,0.229,0.2299,0.2301,0.2303,0.2305,0.2307,0,0.1656,0.1679,0.1713,0.175,0.1767,0.1821,0.189,0.1892,0.1956,0.2072,0.2162,0.2052,0.2076,0.2108,0.2031,0.206,0.1987,0.1956,0.1824,0.185,0.1872,0.1788,0.1627,0.1624,0.1621,0.1619,0,0,0.1629,0.1632,0.1654,0.1661,0.1691,0.1686,0.1707,0.1725,0.1782,0.1797,0.1812,0.1987,0.2079,0.1814,0.1807,0.1694,0.1743,0.1636,0.2196,0.2069,0.2086,0.2144,0.2052,0,0,0,0,0]},{"header":{"parameterUnit":"m.s-1","parameterCategory":2,"la1":30.2991,"la2":30.254,"lo1":-89.0895,"lo2":-89.0444,"dy":0.0017,"dx":0.0017,"nx":28,"ny":28,"refTime":"2025-04-06T21:00:00:Z","depth":"2","parameterNumber":3,"parameterNumberName":"V-component_of_CURRENTS"},"data":[0,0,0,0,0,0,0,0,0,0,0,0,0,0,0,0,0,0,0,0,0,0,0,0,0,0,0,0,0,0,0,0,0,0,0,0,0,0,0,0,0,0,0,0,0,0,0,0,0,0,0,0,0,0,0,0,0,0,-0.0186,-0.0187,0,-0.0244,-0.0245,-0.0245,-0.0296,-0.0296,-0.0297,-0.0297,-0.0316,-0.0316,-0.0316,0,0,0,0,0,0,0,0,0,0,0,0,0,-0.0155,-0.0155,-0.0186,-0.0187,-0.0188,-0.0244,-0.0245,-0.0245,-0.0296,-0.0296,-0.0297,-0.0298,-0.0316,-0.0316,-0.0316,0,0,0,0,0,0,0,0,0,0,0,0,0,-0.0186,-0.0155,-0.0186,-0.0219,-0.0223,-0.0244,-0.0245,-0.0246,-0.0295,-0.0296,-0.0297,-0.0298,-0.0316,-0.0316,-0.0316,-0.03,0,0,-0.0316,-0.0316,0,0,0,0,0,0,0,0,-0.0184,-0.0187,-0.0214,-0.0217,-0.0221,-0.0263,-0.0241,-0.0262,-0.0295,-0.0268,-0.0297,-0.0298,-0.0294,-0.0296,-0.0306,-0.0301,-0.0302,-0.0316,-0.0316,-0.0316,-0.0316,0,0,0,0,0,0,0,-0.0182,-0.0185,-0.0209,-0.0214,-0.0219,-0.0243,-0.0248,-0.0245,-0.0275,-0.0271,-0.0274,-0.028,-0.0296,-0.0306,-0.0307,-0.0302,-0.0316,-0.0316,-0.0316,-0.0316,-0.0278,-0.0277,0,0,0,0,0,0,-0.0171,-0.0183,-0.0208,-0.0211,-0.0204,-0.0243,-0.0249,-0.0249,-0.0276,-0.0282,-0.0279,-0.0282,-0.0306,-0.0307,-0.0308,-0.0281,-0.0316,-0.0316,-0.0316,-0.0279,-0.0278,-0.0276,0,0,0,0,0,0,-0.017,-0.0173,-0.0205,-0.0199,-0.0204,-0.0242,-0.0243,-0.025,-0.0265,-0.0283,-0.0288,-0.0288,-0.0306,-0.0308,-0.0299,-0.0283,-0.0316,-0.0316,-0.028,-0.0278,-0.0277,-0.0234,0,0,0,0,0,0,-0.0169,-0.0172,-0.0169,-0.0197,-0.0204,-0.0201,-0.0242,-0.025,-0.0267,-0.0271,-0.0292,-0.0294,-0.0307,-0.0299,-0.0299,-0.0283,-0.0316,-0.0281,-0.0279,-0.0278,-0.0237,-0.0231,-0.0226,0,0,0,0,0,-0.0168,-0.0154,-0.0168,-0.0171,-0.0198,-0.02,-0.0205,-0.0236,-0.0266,-0.0257,-0.0277,-0.0294,-0.0287,-0.0297,-0.0298,-0.0282,-0.0282,-0.028,-0.0278,-0.0239,-0.0232,-0.0226,0,0,0,0,0,0,-0.0139,-0.0158,-0.0175,-0.0168,-0.0177,-0.0208,-0.0205,-0.0234,-0.0245,-0.0251,-0.028,-0.0282,-0.027,-0.0278,-0.029,-0.0265,-0.0287,-0.0285,-0.0258,-0.0251,-0.0246,-0.024,-0.0316,0,0,0,0,0,-0.0131,-0.0125,-0.0146,-0.014,-0.0142,-0.0176,-0.0184,-0.0202,-0.0218,-0.0226,-0.0243,-0.0256,-0.026,-0.0258,-0.0259,-0.0242,-0.0265,-0.0231,-0.0226,-0.0222,-0.0216,-0.0242,-0.0239,-0.0269,-0.0269,-0.0269,0,0,-0.0121,-0.0128,-0.0128,-0.0133,-0.0146,-0.0136,-0.0182,-0.0182,-0.0178,-0.0223,-0.0218,-0.0237,-0.0251,-0.0236,-0.0231,-0.0241,-0.0225,-0.0219,-0.0215,-0.0212,-0.0239,-0.0236,-0.0234,-0.0267,-0.0268,-0.0268,0,0,-0.0082,-0.0099,-0.0076,-0.0079,-0.0087,-0.0104,-0.0103,-0.0126,-0.014,-0.0137,-0.0171,-0.018,-0.0183,-0.0192,-0.0199,-0.0163,-0.0199,-0.0162,-0.0128,-0.0153,-0.0151,-0.015,-0.0176,-0.0177,-0.0157,-0.0157,-0.0157,0,-0.0067,-0.0046,-0.0069,-0.0045,-0.0045,-0.0087,-0.0062,-0.0077,-0.0096,-0.0101,-0.0124,-0.0148,-0.0163,-0.0155,-0.0147,-0.0152,-0.0174,-0.0153,-0.0148,-0.0147,-0.0147,-0.0173,-0.0175,-0.0155,-0.0155,-0.0155,-0.0156,0,-0.0008,0.0004,0.0019,0.0032,0.0033,0.0048,0.0027,0.0024,-0.0007,-0.0029,-0.0036,-0.0066,-0.0081,-0.0088,-0.0108,-0.0105,-0.0125,-0.0143,-0.0167,-0.0141,-0.0171,-0.0174,-0.0151,-0.0152,-0.0153,-0.0154,0,0,0.0038,0.0057,0.0061,0.0077,0.0073,0.0083,0.0092,0.009,0.0091,0.0061,0.0059,0.0035,-0.0,-0.0009,-0.004,-0.0063,-0.0084,-0.0097,-0.01,-0.0128,-0.0142,-0.0157,-0.0162,-0.0105,-0.0105,-0.0105,-0.0165,0,0.0091,0.0147,0.0139,0.0183,0.0208,0.0176,0.0189,0.0179,0.0154,0.0144,0.0095,0.0084,0.0036,0.0026,-0.0006,-0.0062,-0.0089,-0.0066,-0.0158,-0.016,-0.0182,-0.0165,-0.0141,-0.0192,-0.0168,-0.0169,-0.0169,0,0.0153,0.018,0.0234,0.0256,0.0264,0.0278,0.0283,0.0289,0.0261,0.024,0.0207,0.0165,0.0128,0.008,-0.0009,0.0006,-0.0061,-0.0112,-0.0116,-0.0147,-0.0181,-0.0213,-0.0199,-0.0174,-0.0174,-0.0173,-0.0173,0,0.0201,0.0245,0.0288,0.0296,0.0315,0.0327,0.033,0.0316,0.0331,0.0295,0.0298,0.0234,0.0208,0.0117,0.0008,-0.0002,-0.0097,-0.0124,-0.0201,-0.0203,-0.0208,-0.021,-0.0187,-0.0187,-0.0187,-0.0187,-0.0187,0,0.0258,0.0291,0.0311,0.0333,0.0383,0.0373,0.0412,0.0402,0.04,0.0428,0.0349,0.0357,0.0215,0.0144,0.0033,-0.009,-0.008,-0.0192,-0.0217,-0.0191,-0.0191,-0.0196,-0.0196,-0.0189,-0.0188,-0.0188,-0.0188,0,0.0305,0.0316,0.0367,0.0395,0.0407,0.0439,0.0475,0.0504,0.0486,0.0519,0.0515,0.045,0.0353,0.021,0.0062,-0.0046,-0.0168,-0.0215,-0.0176,-0.0196,-0.0267,-0.0264,-0.0308,-0.0309,-0.031,-0.031,-0.0311,0,0.0334,0.0366,0.0416,0.0449,0.0462,0.0505,0.0541,0.0545,0.0587,0.0586,0.0618,0.0533,0.0497,0.0267,0.0057,-0.0142,-0.0169,-0.0255,-0.0271,-0.0257,-0.0278,-0.0274,-0.027,-0.0262,-0.0262,-0.0262,-0.0263,0,0.039,0.0403,0.0446,0.0518,0.0562,0.0623,0.0675,0.0726,0.0738,0.0764,0.079,0.0759,0.0536,0.0341,0.0056,-0.0082,-0.0224,-0.0264,-0.0258,-0.0232,-0.0218,-0.0238,-0.0234,-0.0264,-0.0263,-0.0263,-0.0263,-0.0263,0.043,0.0471,0.0526,0.0597,0.0655,0.0738,0.0801,0.0861,0.0935,0.0986,0.0937,0.089,0.065,0.0297,0.0042,-0.0234,-0.0223,-0.0313,-0.0311,-0.0309,-0.029,-0.0278,-0.0331,-0.0331,-0.0331,-0.0332,-0.0332,0,0.0485,0.0532,0.0602,0.069,0.077,0.0785,0.0896,0.0961,0.106,0.108,0.1094,0.088,0.064,0.0356,-0.0047,-0.0284,-0.0305,-0.0362,-0.0329,-0.0326,-0.0324,-0.0305,-0.0351,-0.0351,-0.0352,-0.0353,0,0,0.0515,0.0598,0.0637,0.0778,0.0839,0.0957,0.1028,0.1114,0.1159,0.1192,0.1157,0.1083,0.0731,0.0445,0.0116,-0.012,-0.0172,-0.017,-0.0129,-0.0048,-0.0043,-0.0268,-0.0232,0,0,0,0,0]}],[{"header":{"parameterUnit":"m.s-1","parameterCategory":2,"la1":30.2991,"la2":30.254,"lo1":-89.0895,"lo2":-89.0444,"dy":0.0017,"dx":0.0017,"nx":28,"ny":28,"refTime":"2025-04-06T21:00:00:Z","depth":"4","parameterNumber":2,"parameterNumberName":"U-component_of_CURRENTS"},"data":[0,0,0,0,0,0,0,0,0,0,0,0,0,0,0,0,0,0,0,0,0,0,0,0,0,0,0,0,0,0,0,0,0,0,0,0,0,0,0,0,0,0,0,0,0,0,0,0,0,0,0,0,0,0,0,0,0,0,0.1034,0.1035,0,0.1106,0.1107,0.1108,0.1163,0.1163,0.1164,0.1165,0.1305,0.1308,0.1311,0,0,0,0,0,0,0,0,0,0,0,0,0,0.0962,0.0962,0.1034,0.1035,0.1036,0.1106,0.1107,0.1108,0.1163,0.1163,0.1164,0.1165,0.1304,0.1308,0.1312,0,0,0,0,0,0,0,0,0,0,0,0,0,0.1009,0.0963,0.1034,0.1072,0.1076,0.1106,0.1107,0.1108,0.1163,0.1164,0.1164,0.1165,0.1303,0.1308,0.1312,0.1325,0,0,0.1327,0.1329,0,0,0,0,0,0,0,0,0.1006,0.1011,0.1066,0.107,0.1074,0.1127,0.1133,0.1184,0.1162,0.1129,0.1165,0.1166,0.1252,0.1261,0.1271,0.1332,0.1338,0.1327,0.133,0.1332,0.1334,0,0,0,0,0,0,0,0.1003,0.1009,0.1062,0.1067,0.1072,0.1092,0.1099,0.1143,0.1186,0.1132,0.1137,0.1145,0.1255,0.1266,0.1275,0.134,0.1327,0.1332,0.1335,0.1336,0.1531,0.1534,0,0,0,0,0,0,0.0993,0.1005,0.106,0.1064,0.1042,0.1093,0.1101,0.1109,0.1184,0.1196,0.1144,0.1148,0.1257,0.1269,0.128,0.1399,0.1332,0.1337,0.134,0.1529,0.1532,0.1534,0,0,0,0,0,0,0.0991,0.0997,0.1057,0.1037,0.1046,0.1093,0.1101,0.111,0.1151,0.1192,0.1206,0.118,0.1258,0.1273,0.1359,0.1402,0.1339,0.1343,0.1527,0.153,0.1533,0.1575,0,0,0,0,0,0,0.0989,0.0996,0.1009,0.1036,0.1047,0.1108,0.1101,0.1111,0.1153,0.1159,0.1227,0.1239,0.126,0.1351,0.1363,0.1407,0.1347,0.1524,0.1528,0.1532,0.157,0.1579,0.1587,0,0,0,0,0,0.0986,0.1006,0.1009,0.1016,0.1059,0.1109,0.1118,0.1153,0.1154,0.1189,0.1235,0.1238,0.1387,0.1357,0.1371,0.1417,0.1522,0.1527,0.1532,0.1567,0.1577,0.1586,0,0,0,0,0,0,0.0982,0.1014,0.1018,0.1046,0.1087,0.112,0.1157,0.1167,0.1227,0.1245,0.127,0.1287,0.1377,0.1393,0.136,0.1487,0.1454,0.1462,0.1476,0.1487,0.1494,0.1487,0.1351,0,0,0,0,0,0.0983,0.1011,0.1042,0.107,0.1094,0.1126,0.1152,0.1179,0.1226,0.1253,0.1301,0.1353,0.1402,0.1442,0.1493,0.1563,0.1564,0.1602,0.161,0.1616,0.1621,0.1653,0.1664,0.1551,0.1551,0.1551,0,0,0.0989,0.1011,0.1027,0.1072,0.1107,0.1157,0.1147,0.1207,0.1252,0.1261,0.1355,0.1389,0.1428,0.151,0.1551,0.1534,0.1653,0.1623,0.1628,0.1629,0.1659,0.167,0.1679,0.1555,0.1554,0.1554,0,0,0.1027,0.1039,0.1084,0.112,0.1181,0.1202,0.1224,0.1282,0.1317,0.1396,0.1413,0.1473,0.1558,0.1592,0.1614,0.1697,0.1693,0.172,0.1759,0.179,0.1798,0.1806,0.1828,0.1837,0.1725,0.1725,0.1725,0,0.1035,0.1084,0.1107,0.1162,0.1195,0.1225,0.1281,0.1322,0.1402,0.1433,0.1443,0.1557,0.1593,0.1666,0.1698,0.1715,0.1728,0.1714,0.1798,0.1805,0.1812,0.1833,0.1842,0.1727,0.1727,0.1727,0.1727,0,0.1108,0.115,0.1185,0.1255,0.1296,0.1354,0.1402,0.1458,0.1494,0.1525,0.1616,0.1661,0.1722,0.1745,0.1749,0.1823,0.1815,0.18,0.1765,0.1826,0.1844,0.1853,0.1731,0.173,0.1729,0.1729,0,0,0.1121,0.1214,0.123,0.1265,0.1348,0.1385,0.1466,0.1534,0.1578,0.1655,0.1712,0.1793,0.1806,0.1832,0.1848,0.1877,0.1939,0.1866,0.1866,0.1873,0.2009,0.1898,0.1897,0.1938,0.194,0.1941,0.2002,0,0.1174,0.1268,0.1309,0.1397,0.1443,0.1488,0.155,0.1615,0.1667,0.1735,0.1777,0.1845,0.1841,0.1875,0.1906,0.1934,0.1965,0.1924,0.1961,0.1962,0.1844,0.1905,0.1947,0.2009,0.2011,0.2012,0.2013,0,0.1234,0.1284,0.1373,0.1445,0.1473,0.153,0.1613,0.1675,0.1762,0.1804,0.187,0.1902,0.1975,0.1951,0.2027,0.2003,0.2016,0.2025,0.2027,0.1913,0.1868,0.1936,0.203,0.2028,0.2027,0.2026,0.2025,0,0.1215,0.1324,0.1386,0.1417,0.1512,0.1559,0.1613,0.1699,0.1753,0.1851,0.1898,0.1974,0.2025,0.2056,0.2088,0.2067,0.2153,0.2121,0.2033,0.2025,0.2085,0.2076,0.217,0.217,0.217,0.2169,0.2169,0,0.1232,0.1287,0.1384,0.1415,0.1487,0.1556,0.1636,0.1699,0.1794,0.1853,0.1932,0.1983,0.2056,0.2109,0.2118,0.2107,0.2181,0.205,0.2037,0.2104,0.2096,0.2092,0.2082,0.2172,0.2171,0.2171,0.217,0,0.1198,0.1267,0.1338,0.1442,0.1479,0.1528,0.1643,0.169,0.1793,0.1873,0.1911,0.2018,0.2081,0.2136,0.2193,0.2137,0.2141,0.2118,0.22,0.2189,0.1984,0.1976,0.2017,0.2013,0.2011,0.2008,0.2006,0,0.1184,0.1219,0.1337,0.1374,0.1427,0.1511,0.156,0.1676,0.1725,0.1874,0.1901,0.2011,0.2065,0.2055,0.2122,0.2135,0.2109,0.2095,0.2022,0.1987,0.1971,0.1967,0.1963,0.2002,0.2001,0.2,0.2,0,0.1145,0.1198,0.125,0.1325,0.1388,0.145,0.1534,0.1562,0.1687,0.18,0.1843,0.1877,0.1946,0.1981,0.2012,0.2015,0.2091,0.2064,0.2069,0.2001,0.1969,0.1955,0.1955,0.199,0.1991,0.1992,0.1993,0,0.1111,0.113,0.12,0.1257,0.133,0.136,0.1418,0.1474,0.1537,0.1696,0.1708,0.1819,0.1923,0.1921,0.1951,0.1948,0.191,0.1835,0.1851,0.1863,0.1784,0.172,0.1661,0,0,0,0,0,0.1062,0.1073,0.1122,0.1172,0.124,0.1283,0.1385,0.1444,0.1567,0.1554,0.1626,0.1678,0.1719,0.1783,0.1748,0.1893,0.1924,0.1845,0.1846,0.1936,0.1947,0.1869,0,0,0,0,0,0,0.1027,0.1067,0.1088,0.1089,0.1107,0.1166,0.1226,0.1311,0.1314,0.1445,0.1476,0.1577,0.1645,0.1716,0.1714,0.1734,0.1701,0.1922,0.1918,0.1929,0.1939,0.1949,0.1873,0,0,0,0,0]},{"header":{"parameterUnit":"m.s-1","parameterCategory":2,"la1":30.2991,"la2":30.254,"lo1":-89.0895,"lo2":-89.0444,"dy":0.0017,"dx":0.0017,"nx":28,"ny":28,"refTime":"2025-04-06T21:00:00:Z","depth":"4","parameterNumber":3,"parameterNumberName":"V-component_of_CURRENTS"},"data":[0,0,0,0,0,0,0,0,0,0,0,0,0,0,0,0,0,0,0,0,0,0,0,0,0,0,0,0,0,0,0,0,0,0,0,0,0,0,0,0,0,0,0,0,0,0,0,0,0,0,0,0,0,0,0,0,0,0,0.0341,0.0341,0,0.0309,0.0308,0.0308,0.03,0.03,0.0301,0.0301,0.0205,0.0202,0.0199,0,0,0,0,0,0,0,0,0,0,0,0,0,0.0329,0.0329,0.0341,0.0341,0.0341,0.0309,0.0308,0.0307,0.03,0.03,0.0301,0.0301,0.0206,0.0202,0.0199,0,0,0,0,0,0,0,0,0,0,0,0,0,0.0317,0.0329,0.0341,0.0335,0.0334,0.0309,0.0308,0.0307,0.03,0.03,0.0301,0.0302,0.0207,0.0203,0.0198,0.0159,0,0,0.0185,0.0183,0,0,0,0,0,0,0,0,0.0318,0.0318,0.0336,0.0335,0.0334,0.0311,0.0268,0.0255,0.03,0.0311,0.0301,0.0302,0.0235,0.0228,0.0219,0.0155,0.0151,0.0185,0.0182,0.018,0.0179,0,0,0,0,0,0,0,0.0319,0.0319,0.0327,0.0336,0.0335,0.031,0.0309,0.0266,0.0267,0.031,0.031,0.0309,0.0234,0.0224,0.0217,0.0149,0.0185,0.0181,0.0178,0.0176,0.0033,0.0032,0,0,0,0,0,0,0.033,0.032,0.0328,0.0326,0.0329,0.031,0.0309,0.0316,0.0269,0.0264,0.0308,0.0309,0.0231,0.0222,0.0213,0.0163,0.018,0.0176,0.0173,0.0034,0.0032,0.0031,0,0,0,0,0,0,0.033,0.0331,0.0329,0.0323,0.0321,0.031,0.0317,0.0315,0.0306,0.0269,0.0262,0.0303,0.0231,0.0219,0.0166,0.0159,0.0174,0.017,0.0035,0.0033,0.0032,0.0063,0,0,0,0,0,0,0.033,0.0331,0.0337,0.0324,0.0322,0.0306,0.0317,0.0314,0.0306,0.0306,0.0261,0.0253,0.0231,0.0173,0.0162,0.0154,0.0167,0.0037,0.0034,0.0032,0.0064,0.0063,0.0062,0,0,0,0,0,0.0329,0.0335,0.0338,0.0339,0.0332,0.0306,0.0301,0.0294,0.0305,0.029,0.0262,0.0255,0.0151,0.0168,0.0155,0.0146,0.0038,0.0035,0.0033,0.0064,0.0063,0.0062,0,0,0,0,0,0,0.0331,0.0334,0.0338,0.0344,0.0324,0.0305,0.0295,0.0293,0.0262,0.0262,0.0234,0.0222,0.0174,0.0148,0.0167,0.0096,0.0095,0.009,0.0123,0.0122,0.0121,0.0148,0.0163,0,0,0,0,0,0.0335,0.0342,0.033,0.0333,0.0324,0.031,0.0301,0.0293,0.0267,0.0255,0.0223,0.0187,0.0152,0.0129,0.0087,0.0043,0.0032,0.0029,0.0028,0.0028,0.0039,0.0015,0.0014,0.0023,0.0023,0.0023,0,0,0.0338,0.034,0.0344,0.0334,0.032,0.0303,0.0305,0.0286,0.0274,0.0246,0.0211,0.0177,0.0138,0.0093,0.007,0.0072,0.0015,0.0024,0.0025,0.0036,0.0012,0.0012,0.0012,0.0021,0.0021,0.0021,0,0,0.0332,0.0345,0.034,0.0325,0.0305,0.0295,0.029,0.0262,0.0253,0.021,0.0196,0.0162,0.0094,0.0076,0.0058,0.0024,0.001,0.0004,0.0024,0.0001,0.0001,0.0001,-0.0023,-0.0025,0.0007,0.0007,0.0007,0,0.0333,0.0336,0.0329,0.0314,0.0313,0.0293,0.0284,0.0262,0.022,0.0217,0.0198,0.0128,0.0092,0.0067,0.0055,0.0026,0.0009,0.0037,0.0003,0.0003,0.0002,-0.0022,-0.0025,0.0008,0.0008,0.0008,0.0007,0,0.0313,0.032,0.0313,0.0299,0.0289,0.0276,0.0255,0.0237,0.0225,0.0209,0.0174,0.0123,0.0093,0.0069,0.005,0.003,0.0017,0.0007,0.0016,0.0004,-0.0022,-0.0025,0.0009,0.0009,0.0009,0.0008,0,0,0.0309,0.0305,0.0304,0.0314,0.029,0.0285,0.0264,0.0252,0.026,0.0202,0.0206,0.014,0.0128,0.0107,0.0079,0.0054,0.0028,0.0031,0.0029,0.0026,-0.0025,-0.003,-0.0034,0.0013,0.0013,0.0012,-0.0043,0,0.0299,0.0297,0.0291,0.0294,0.0299,0.029,0.0282,0.0268,0.0251,0.0239,0.0199,0.0178,0.0138,0.013,0.0098,0.005,0.0021,0.0044,-0.0029,-0.0031,-0.0018,-0.0038,0.0011,-0.0045,-0.0046,-0.0047,-0.0047,0,0.0283,0.0293,0.0302,0.0331,0.0332,0.0326,0.0344,0.0332,0.031,0.0297,0.0271,0.0239,0.02,0.0165,0.0082,0.0098,0.0041,-0.0003,-0.0007,-0.0019,-0.0041,-0.0033,-0.0054,-0.0053,-0.0053,-0.0052,-0.0052,0,0.0303,0.0309,0.0332,0.0335,0.0346,0.0357,0.0361,0.0352,0.0366,0.0339,0.0346,0.0287,0.0267,0.0186,0.0094,0.0087,-0.0,-0.002,-0.008,-0.0081,-0.0071,-0.0071,-0.008,-0.008,-0.008,-0.008,-0.008,0,0.031,0.0329,0.0348,0.036,0.0399,0.0392,0.0426,0.0419,0.0422,0.0445,0.0384,0.0386,0.0271,0.0208,0.0112,0.0009,0.0012,-0.0075,-0.0095,-0.0061,-0.0058,-0.0074,-0.0073,-0.0082,-0.0081,-0.0081,-0.0081,0,0.0327,0.0335,0.037,0.0396,0.041,0.0437,0.0478,0.0504,0.0495,0.0522,0.0519,0.0463,0.0377,0.026,0.013,0.0045,-0.006,-0.01,-0.005,-0.0066,-0.0133,-0.0129,-0.0172,-0.0173,-0.0173,-0.0174,-0.0174,0,0.0335,0.0354,0.0404,0.0435,0.0449,0.049,0.0526,0.0537,0.057,0.0571,0.0591,0.0522,0.0466,0.0288,0.0149,-0.0034,-0.0065,-0.0126,-0.0138,-0.0127,-0.0142,-0.0138,-0.0134,-0.0175,-0.0175,-0.0175,-0.0175,0,0.0355,0.0375,0.041,0.0477,0.0522,0.0577,0.0626,0.0657,0.0672,0.0669,0.0655,0.0555,0.0457,0.0301,0.0158,0.0024,-0.009,-0.0132,-0.0132,-0.0144,-0.0131,-0.0144,-0.014,-0.0177,-0.0177,-0.0176,-0.0176,0,0.0378,0.041,0.0461,0.0521,0.0585,0.0648,0.0667,0.0704,0.0732,0.0727,0.072,0.0601,0.0529,0.0331,0.0202,0.0067,0.0025,-0.003,-0.0037,-0.0036,0.0013,0.005,0.0046,0,0,0,0,0,0.0398,0.0442,0.0502,0.0571,0.0636,0.0676,0.0735,0.0747,0.0762,0.0762,0.0743,0.0648,0.045,0.0368,0.0234,0.0181,-0.0004,0.0017,-0.0071,-0.0187,-0.0185,-0.0151,0,0,0,0,0,0,0.0414,0.0475,0.0509,0.0605,0.0659,0.0736,0.0776,0.0783,0.0782,0.077,0.0675,0.0608,0.0425,0.0533,0.0233,0.0191,0.0112,-0.0077,-0.008,-0.0188,-0.0186,-0.0184,-0.015,0,0,0,0,0]}]]